Wetterdaten: Montag, 02.11.2015
Datum Zeit Temp. A. Mod.Schuppen Feuchte A. Luftdruck Regen Wind Richtung Richtung Sonnenschein Helligkeit Solar
02.11.2015 00:00 7,0 C 4,0 C 87 % 1029,1 hPa 0,0 l/m 0,1 km/h (0 Bft) S 170 0 min 0 lux 0 W/m
02.11.2015 00:05 7,0 C 3,9 C 87 % 1029,1 hPa 0,0 l/m 1,0 km/h (0 Bft) S 170 0 min 0 lux 0 W/m
02.11.2015 00:09 7,0 C 3,9 C 87 % 1029,1 hPa 0,0 l/m 1,0 km/h (0 Bft) S 170 0 min 0 lux 0 W/m
02.11.2015 00:15 6,8 C 3,8 C 87 % 1029,1 hPa 0,0 l/m 0,6 km/h (0 Bft) S 170 0 min 0 lux 0 W/m
02.11.2015 00:20 6,8 C 3,6 C 87 % 1028,1 hPa 0,0 l/m 0,1 km/h (0 Bft) S 170 0 min 0 lux 0 W/m
02.11.2015 00:25 6,8 C 3,7 C 87 % 1028,1 hPa 0,0 l/m 0,3 km/h (0 Bft) S 170 0 min 0 lux 0 W/m
02.11.2015 00:30 6,8 C 3,7 C 87 % 1028,1 hPa 0,0 l/m 0,0 km/h (0 Bft) S 170 0 min 0 lux 0 W/m
02.11.2015 00:35 6,8 C 3,7 C 87 % 1028,1 hPa 0,0 l/m 0,0 km/h (0 Bft) S 170 0 min 0 lux 0 W/m
02.11.2015 00:40 6,8 C 3,5 C 87 % 1028,1 hPa 0,0 l/m 0,0 km/h (0 Bft) S 170 0 min 0 lux 0 W/m
02.11.2015 00:45 6,8 C 3,5 C 87 % 1028,1 hPa 0,0 l/m 0,0 km/h (0 Bft) S 170 0 min 0 lux 0 W/m
02.11.2015 00:50 6,8 C 3,1 C 87 % 1028,1 hPa 0,0 l/m 0,0 km/h (0 Bft) S 170 0 min 0 lux 0 W/m
02.11.2015 00:55 6,8 C 2,8 C 87 % 1028,1 hPa 0,0 l/m 0,0 km/h (0 Bft) S 170 0 min 0 lux 0 W/m
02.11.2015 01:00 6,8 C 2,8 C 87 % 1028,1 hPa 0,0 l/m 0,0 km/h (0 Bft) S 170 0 min 0 lux 0 W/m
02.11.2015 01:05 6,8 C 2,7 C 87 % 1028,1 hPa 0,0 l/m 0,0 km/h (0 Bft) S 170 0 min 0 lux 0 W/m
02.11.2015 01:09 6,8 C 2,5 C 87 % 1028,1 hPa 0,0 l/m 0,0 km/h (0 Bft) S 170 0 min 0 lux 0 W/m
02.11.2015 01:15 6,8 C 2,4 C 87 % 1028,1 hPa 0,0 l/m 0,0 km/h (0 Bft) S 170 0 min 0 lux 0 W/m
02.11.2015 01:20 6,8 C 2,3 C 87 % 1028,1 hPa 0,0 l/m 0,0 km/h (0 Bft) S 170 0 min 0 lux 0 W/m
02.11.2015 01:25 4,6 C 2,4 C 88 % 1028,2 hPa 0,0 l/m 0,0 km/h (0 Bft) S-SO 165 0 min 0 lux 0 W/m
02.11.2015 01:30 4,6 C 2,2 C 88 % 1028,2 hPa 0,0 l/m 0,0 km/h (0 Bft) S-SO 165 0 min 0 lux 0 W/m
02.11.2015 01:35 4,3 C 2,2 C 88 % 1028,2 hPa 0,0 l/m 0,0 km/h (0 Bft) S 170 0 min 0 lux 0 W/m
02.11.2015 01:40 4,3 C 1,9 C 88 % 1028,2 hPa 0,0 l/m 0,0 km/h (0 Bft) S 170 0 min 0 lux 0 W/m
02.11.2015 01:45 4,3 C 2,1 C 88 % 1028,2 hPa 0,0 l/m 0,0 km/h (0 Bft) S 170 0 min 0 lux 0 W/m
02.11.2015 01:50 4,3 C 2,1 C 88 % 1028,2 hPa 0,0 l/m 0,0 km/h (0 Bft) S 170 0 min 0 lux 0 W/m
02.11.2015 01:55 4,3 C 2,2 C 88 % 1028,2 hPa 0,0 l/m 0,0 km/h (0 Bft) S 170 0 min 0 lux 0 W/m
02.11.2015 02:00 4,3 C 2,3 C 88 % 1028,2 hPa 0,0 l/m 0,0 km/h (0 Bft) S 170 0 min 0 lux 0 W/m
02.11.2015 02:05 4,3 C 2,0 C 88 % 1028,2 hPa 0,0 l/m 0,6 km/h (0 Bft) S 170 0 min 0 lux 0 W/m
02.11.2015 02:09 3,9 C 1,9 C 87 % 1028,2 hPa 0,0 l/m 0,0 km/h (0 Bft) S 170 0 min 0 lux 0 W/m
02.11.2015 02:15 3,9 C 1,7 C 87 % 1028,2 hPa 0,0 l/m 0,3 km/h (0 Bft) S 170 0 min 0 lux 0 W/m
02.11.2015 02:20 3,9 C 1,8 C 87 % 1028,2 hPa 0,0 l/m 0,3 km/h (0 Bft) S 170 0 min 0 lux 0 W/m
02.11.2015 02:25 3,9 C 1,6 C 87 % 1028,2 hPa 0,0 l/m 0,0 km/h (0 Bft) S 170 0 min 0 lux 0 W/m
02.11.2015 02:30 3,8 C 1,3 C 87 % 1028,2 hPa 0,0 l/m 0,0 km/h (0 Bft) S 170 0 min 0 lux 0 W/m
02.11.2015 02:35 3,8 C 1,2 C 87 % 1028,2 hPa 0,0 l/m 0,0 km/h (0 Bft) S 170 0 min 0 lux 0 W/m
02.11.2015 02:40 3,8 C 1,0 C 87 % 1028,2 hPa 0,0 l/m 0,0 km/h (0 Bft) S 170 0 min 0 lux 0 W/m
02.11.2015 02:45 3,8 C 1,1 C 87 % 1028,2 hPa 0,0 l/m 0,0 km/h (0 Bft) S 170 0 min 0 lux 0 W/m
02.11.2015 02:50 3,8 C 1,0 C 87 % 1028,2 hPa 0,4 l/m 0,0 km/h (0 Bft) S 170 0 min 0 lux 0 W/m
02.11.2015 02:55 3,8 C 1,1 C 87 % 1028,2 hPa 0,0 l/m 0,0 km/h (0 Bft) S 170 0 min 0 lux 0 W/m
02.11.2015 03:00 3,8 C 1,1 C 87 % 1028,2 hPa 0,0 l/m 0,0 km/h (0 Bft) S 170 0 min 0 lux 0 W/m
02.11.2015 03:05 3,8 C 1,0 C 87 % 1028,2 hPa 0,0 l/m 0,0 km/h (0 Bft) S 170 0 min 0 lux 0 W/m
02.11.2015 03:09 3,4 C 0,7 C 88 % 1028,2 hPa 0,0 l/m 0,0 km/h (0 Bft) S 170 0 min 0 lux 0 W/m
02.11.2015 03:15 3,4 C 0,6 C 88 % 1028,2 hPa 0,0 l/m 0,0 km/h (0 Bft) S 170 0 min 0 lux 0 W/m
02.11.2015 03:20 3,4 C 0,5 C 88 % 1028,2 hPa 0,0 l/m 0,0 km/h (0 Bft) S 170 0 min 0 lux 0 W/m
02.11.2015 03:25 3,4 C 0,5 C 88 % 1028,2 hPa 0,0 l/m 0,0 km/h (0 Bft) S 170 0 min 0 lux 0 W/m
02.11.2015 03:30 3,4 C 0,6 C 88 % 1028,2 hPa 0,0 l/m 0,0 km/h (0 Bft) S 170 0 min 0 lux 0 W/m
02.11.2015 03:35 3,4 C 0,8 C 88 % 1027,2 hPa 0,0 l/m 0,0 km/h (0 Bft) S 170 0 min 0 lux 0 W/m
02.11.2015 03:40 3,4 C 0,9 C 88 % 1027,2 hPa 0,0 l/m 0,0 km/h (0 Bft) S 170 0 min 0 lux 0 W/m
02.11.2015 03:45 3,3 C 0,9 C 88 % 1027,2 hPa 0,0 l/m 0,0 km/h (0 Bft) S 170 0 min 0 lux 0 W/m
02.11.2015 03:50 3,3 C 0,9 C 88 % 1027,2 hPa 0,0 l/m 0,0 km/h (0 Bft) S 170 0 min 0 lux 0 W/m
02.11.2015 03:55 3,3 C 0,8 C 88 % 1027,2 hPa 0,0 l/m 0,4 km/h (0 Bft) S 170 0 min 0 lux 0 W/m
02.11.2015 04:00 3,3 C 0,7 C 88 % 1027,2 hPa 0,0 l/m 0,0 km/h (0 Bft) S 170 0 min 0 lux 0 W/m
02.11.2015 04:05 3,3 C 0,7 C 88 % 1027,2 hPa 0,0 l/m 0,0 km/h (0 Bft) S 170 0 min 0 lux 0 W/m
02.11.2015 04:10 3,3 C 1,1 C 88 % 1027,2 hPa 0,0 l/m 0,0 km/h (0 Bft) S 170 0 min 0 lux 0 W/m
02.11.2015 04:15 3,3 C 1,6 C 88 % 1027,2 hPa 0,0 l/m 0,0 km/h (0 Bft) S 170 0 min 0 lux 0 W/m
02.11.2015 04:20 3,3 C 1,7 C 88 % 1027,2 hPa 0,0 l/m 0,0 km/h (0 Bft) S 170 0 min 0 lux 0 W/m
02.11.2015 04:25 3,3 C 1,9 C 88 % 1027,2 hPa 0,0 l/m 0,7 km/h (0 Bft) S-SO 165 0 min 0 lux 0 W/m
02.11.2015 04:30 4,3 C 2,2 C 89 % 1027,2 hPa 0,0 l/m 5,1 km/h (1 Bft) S 170 0 min 0 lux 0 W/m
02.11.2015 04:35 4,3 C 2,5 C 89 % 1027,2 hPa 0,0 l/m 4,3 km/h (1 Bft) S 170 0 min 0 lux 0 W/m
02.11.2015 04:40 4,3 C 2,5 C 89 % 1027,2 hPa 0,0 l/m 4,3 km/h (1 Bft) S 170 0 min 0 lux 0 W/m
02.11.2015 04:45 4,3 C 2,4 C 89 % 1027,2 hPa 0,0 l/m 4,3 km/h (1 Bft) S 170 0 min 0 lux 0 W/m
02.11.2015 04:50 4,3 C 2,2 C 89 % 1027,2 hPa 0,0 l/m 4,3 km/h (1 Bft) S 170 0 min 0 lux 0 W/m
02.11.2015 04:55 4,3 C 1,9 C 89 % 1027,2 hPa 0,0 l/m 3,1 km/h (1 Bft) S 170 0 min 0 lux 0 W/m
02.11.2015 05:00 4,3 C 1,4 C 89 % 1027,2 hPa 0,0 l/m 3,1 km/h (1 Bft) S 170 0 min 0 lux 0 W/m
02.11.2015 05:04 4,3 C 1,4 C 89 % 1027,2 hPa 0,0 l/m 2,4 km/h (1 Bft) S 170 0 min 0 lux 0 W/m
02.11.2015 05:10 3,2 C 1,1 C 88 % 1027,2 hPa 0,0 l/m 0,0 km/h (0 Bft) S 170 0 min 0 lux 0 W/m
02.11.2015 05:15 3,2 C 1,0 C 88 % 1027,2 hPa 0,0 l/m 0,0 km/h (0 Bft) S 170 0 min 0 lux 0 W/m
02.11.2015 05:20 3,2 C 0,9 C 88 % 1027,2 hPa 0,0 l/m 0,0 km/h (0 Bft) S 170 0 min 0 lux 0 W/m
02.11.2015 05:25 3,2 C 0,9 C 88 % 1027,2 hPa 0,0 l/m 0,0 km/h (0 Bft) S 170 0 min 0 lux 0 W/m
02.11.2015 05:30 3,2 C 0,8 C 88 % 1027,2 hPa 0,0 l/m 0,0 km/h (0 Bft) S 170 0 min 0 lux 0 W/m
02.11.2015 05:35 3,2 C 1,0 C 88 % 1027,2 hPa 0,0 l/m 0,3 km/h (0 Bft) S 170 0 min 0 lux 0 W/m
02.11.2015 05:39 3,2 C 1,4 C 88 % 1027,2 hPa 0,0 l/m 0,4 km/h (0 Bft) S 170 0 min 880 lux 0 W/m
02.11.2015 05:45 3,2 C 1,6 C 88 % 1027,2 hPa 0,0 l/m 0,8 km/h (0 Bft) S 170 0 min 880 lux 0 W/m
02.11.2015 05:50 3,2 C 1,7 C 88 % 1027,2 hPa 0,0 l/m 3,2 km/h (1 Bft) S 170 0 min 880 lux 0 W/m
02.11.2015 05:55 3,3 C 1,7 C 88 % 1027,2 hPa 0,0 l/m 0,0 km/h (0 Bft) S 170 0 min 880 lux 0 W/m
02.11.2015 06:00 3,3 C 1,7 C 88 % 1027,2 hPa 0,0 l/m 0,0 km/h (0 Bft) S 170 0 min 880 lux 0 W/m
02.11.2015 06:04 3,4 C 1,5 C 89 % 1027,2 hPa 0,0 l/m 0,0 km/h (0 Bft) S 170 0 min 880 lux 0 W/m
02.11.2015 06:10 3,6 C 1,8 C 89 % 1027,2 hPa 0,0 l/m 3,6 km/h (1 Bft) S 170 0 min 880 lux 0 W/m
02.11.2015 06:15 3,7 C 1,8 C 89 % 1027,2 hPa 0,0 l/m 3,2 km/h (1 Bft) S 170 0 min 880 lux 0 W/m
02.11.2015 06:20 3,8 C 1,9 C 89 % 1027,2 hPa 0,0 l/m 4,4 km/h (1 Bft) S 170 0 min 0 lux 0 W/m
02.11.2015 06:25 3,9 C 2,0 C 89 % 1026,2 hPa 0,0 l/m 4,2 km/h (1 Bft) S 170 0 min 0 lux 0 W/m
02.11.2015 06:30 3,7 C 1,9 C 89 % 1026,2 hPa 0,0 l/m 2,2 km/h (1 Bft) S 170 0 min 0 lux 0 W/m
02.11.2015 06:35 3,7 C 2,0 C 89 % 1026,2 hPa 0,0 l/m 0,1 km/h (0 Bft) S 170 0 min 0 lux 0 W/m
02.11.2015 06:40 3,3 C 1,7 C 88 % 1026,2 hPa 0,0 l/m 1,0 km/h (0 Bft) S 170 0 min 0 lux 0 W/m
02.11.2015 06:45 2,9 C 1,5 C 88 % 1026,2 hPa 0,0 l/m 0,0 km/h (0 Bft) S 170 0 min 0 lux 0 W/m
02.11.2015 06:50 2,9 C 1,5 C 88 % 1026,2 hPa 0,0 l/m 0,0 km/h (0 Bft) S 170 0 min 0 lux 0 W/m
02.11.2015 06:55 3,3 C 1,5 C 89 % 1026,2 hPa 0,0 l/m 0,0 km/h (0 Bft) S 170 0 min 0 lux 0 W/m
02.11.2015 07:00 3,3 C 1,4 C 89 % 1026,2 hPa 0,0 l/m 0,0 km/h (0 Bft) S 170 0 min 0 lux 0 W/m
02.11.2015 07:04 3,3 C 1,2 C 89 % 1026,2 hPa 0,0 l/m 0,0 km/h (0 Bft) S 170 0 min 35 lux 0 W/m
02.11.2015 07:10 3,3 C 1,2 C 89 % 1026,2 hPa 0,0 l/m 0,0 km/h (0 Bft) S 170 0 min 35 lux 0 W/m
02.11.2015 07:15 3,3 C 1,2 C 89 % 1026,2 hPa 0,0 l/m 4,4 km/h (1 Bft) S 170 0 min 35 lux 0 W/m
02.11.2015 07:20 3,3 C 1,3 C 89 % 1027,2 hPa 0,0 l/m 4,4 km/h (1 Bft) S 170 0 min 283 lux 0 W/m
02.11.2015 07:25 3,5 C 1,4 C 89 % 1027,2 hPa 0,0 l/m 4,4 km/h (1 Bft) S 170 0 min 283 lux 0 W/m
02.11.2015 07:30 3,5 C 1,7 C 89 % 1027,2 hPa 0,0 l/m 4,4 km/h (1 Bft) S 170 0 min 928 lux 0 W/m
02.11.2015 07:35 3,1 C 1,7 C 88 % 1027,2 hPa 0,0 l/m 4,4 km/h (1 Bft) S 170 0 min 928 lux 6 W/m
02.11.2015 07:40 3,1 C 1,6 C 88 % 1027,2 hPa 0,0 l/m 4,4 km/h (1 Bft) S 170 0 min 928 lux 6 W/m
02.11.2015 07:45 3,1 C 1,5 C 88 % 1027,2 hPa 0,0 l/m 4,4 km/h (1 Bft) S 170 5 min 2,28 klux 16 W/m
02.11.2015 07:50 3,0 C 1,6 C 88 % 1027,2 hPa 0,0 l/m 0,3 km/h (0 Bft) S 170 0 min 2,28 klux 16 W/m
02.11.2015 07:55 3,0 C 1,5 C 88 % 1027,2 hPa 0,0 l/m 0,0 km/h (0 Bft) S 170 0 min 4,01 klux 27 W/m
02.11.2015 08:00 3,0 C 1,7 C 89 % 1027,2 hPa 0,0 l/m 5,6 km/h (2 Bft) S 170 0 min 4,21 klux 29 W/m
02.11.2015 08:05 3,1 C 1,7 C 89 % 1027,2 hPa 0,0 l/m 0,0 km/h (0 Bft) S 170 0 min 4,21 klux 29 W/m
02.11.2015 08:10 3,1 C 2,5 C 89 % 1027,2 hPa 0,0 l/m 4,5 km/h (1 Bft) S 170 0 min 4,21 klux 29 W/m
02.11.2015 08:15 3,5 C 2,6 C 89 % 1027,2 hPa 0,0 l/m 4,5 km/h (1 Bft) S 170 0 min 5,79 klux 40 W/m
02.11.2015 08:20 3,5 C 3,0 C 89 % 1027,2 hPa 0,0 l/m 4,5 km/h (1 Bft) S 170 0 min 5,85 klux 40 W/m
02.11.2015 08:25 3,7 C 3,7 C 89 % 1027,2 hPa 0,0 l/m 4,5 km/h (1 Bft) S 170 0 min 8,27 klux 57 W/m
02.11.2015 08:30 3,7 C 4,2 C 89 % 1027,2 hPa 0,0 l/m 0,3 km/h (0 Bft) S-SO 165 0 min 8,27 klux 57 W/m
02.11.2015 08:34 3,9 C 4,4 C 89 % 1027,2 hPa 0,0 l/m 0,5 km/h (0 Bft) S-SO 165 0 min 8,27 klux 57 W/m
02.11.2015 08:40 3,9 C 5,0 C 89 % 1027,2 hPa 0,0 l/m 0,3 km/h (0 Bft) S-SO 165 0 min 8,27 klux 57 W/m
02.11.2015 08:45 4,2 C 5,9 C 89 % 1027,2 hPa 0,0 l/m 0,2 km/h (0 Bft) S-SO 165 5 min 24,9 klux 170 W/m
02.11.2015 08:50 4,5 C 8,1 C 89 % 1027,2 hPa 0,0 l/m 0,1 km/h (0 Bft) S-SO 165 5 min 27,5 klux 188 W/m
02.11.2015 08:55 5,4 C 10,2 C 89 % 1027,2 hPa 0,0 l/m 0,2 km/h (0 Bft) S-SO 165 5 min 27,5 klux 188 W/m
02.11.2015 09:00 5,4 C 11,6 C 89 % 1026,1 hPa 0,0 l/m 0,0 km/h (0 Bft) S-SO 165 5 min 27,5 klux 188 W/m
02.11.2015 09:05 6,1 C 12,2 C 90 % 1027,1 hPa 0,0 l/m 0,0 km/h (0 Bft) S-SO 165 5 min 30,1 klux 206 W/m
02.11.2015 09:10 7,2 C 13,2 C 90 % 1026,1 hPa 0,0 l/m 0,3 km/h (0 Bft) S-SO 165 5 min 32,1 klux 220 W/m
02.11.2015 09:15 8,0 C 14,4 C 89 % 1026,1 hPa 0,0 l/m 0,2 km/h (0 Bft) S-SO 165 5 min 31,9 klux 218 W/m
02.11.2015 09:20 8,8 C 14,8 C 89 % 1026,1 hPa 0,0 l/m 0,0 km/h (0 Bft) S-SO 165 5 min 32,1 klux 220 W/m
02.11.2015 09:25 9,2 C 15,6 C 89 % 1026,1 hPa 0,0 l/m 0,0 km/h (0 Bft) S-SO 165 5 min 32,1 klux 220 W/m
02.11.2015 09:30 9,5 C 15,6 C 88 % 1026,1 hPa 0,0 l/m 0,8 km/h (0 Bft) S-SO 165 5 min 31,6 klux 216 W/m
02.11.2015 09:35 9,5 C 16,0 C 88 % 1026,1 hPa 0,0 l/m 0,9 km/h (0 Bft) S-SO 165 5 min 34,9 klux 239 W/m
02.11.2015 09:40 9,6 C 16,5 C 88 % 1026,1 hPa 0,0 l/m 7,8 km/h (2 Bft) S-SO45 160 5 min 35,6 klux 244 W/m
02.11.2015 09:45 10,0 C 18,0 C 87 % 1026,1 hPa 0,0 l/m 8,1 km/h (2 Bft) O-NO22.5 75 5 min 35,6 klux 244 W/m
02.11.2015 09:50 10,4 C 19,5 C 87 % 1026,1 hPa 0,0 l/m 0,4 km/h (0 Bft) O-NO 70 5 min 35,6 klux 244 W/m
02.11.2015 09:55 10,8 C 20,1 C 86 % 1026,0 hPa 0,0 l/m 0,1 km/h (0 Bft) O-NO 70 5 min 41,9 klux 287 W/m
02.11.2015 10:00 11,3 C 21,5 C 86 % 1026,0 hPa 0,0 l/m 0,0 km/h (0 Bft) O-NO 70 5 min 42,9 klux 293 W/m
02.11.2015 10:05 11,3 C 22,4 C 86 % 1026,0 hPa 0,0 l/m 0,0 km/h (0 Bft) O-NO 70 5 min 43,5 klux 298 W/m
02.11.2015 10:10 12,1 C 23,0 C 85 % 1026,0 hPa 0,0 l/m 0,2 km/h (0 Bft) O-NO 70 5 min 44,3 klux 303 W/m
02.11.2015 10:15 12,2 C 23,8 C 84 % 1026,0 hPa 0,0 l/m 0,0 km/h (0 Bft) O-NO 70 5 min 44,3 klux 303 W/m
02.11.2015 10:20 12,2 C 24,6 C 84 % 1026,0 hPa 0,0 l/m 0,9 km/h (0 Bft) O-NO 70 5 min 45,6 klux 312 W/m
02.11.2015 10:25 13,2 C 25,2 C 79 % 1026,0 hPa 0,0 l/m 1,0 km/h (0 Bft) O-NO 70 5 min 46,4 klux 317 W/m
02.11.2015 10:29 13,6 C 26,1 C 77 % 1026,0 hPa 0,0 l/m 3,7 km/h (1 Bft) O-NO 70 4 min 47,0 klux 321 W/m
02.11.2015 10:35 13,8 C 27,2 C 75 % 1026,0 hPa 0,0 l/m 3,7 km/h (1 Bft) O-NO 70 6 min 47,4 klux 324 W/m
02.11.2015 10:40 14,2 C 28,0 C 71 % 1026,0 hPa 0,0 l/m 8,2 km/h (2 Bft) SO45 125 5 min 47,3 klux 324 W/m
02.11.2015 10:45 14,4 C 28,4 C 67 % 1026,0 hPa 0,0 l/m 8,2 km/h (2 Bft) SO45 125 5 min 48,0 klux 328 W/m
02.11.2015 10:50 14,4 C 28,5 C 67 % 1026,0 hPa 0,0 l/m 15,1 km/h (3 Bft) S-SO22.5 160 5 min 48,8 klux 334 W/m
02.11.2015 10:55 14,8 C 28,8 C 61 % 1026,0 hPa 0,0 l/m 15,1 km/h (3 Bft) S-SO22.5 160 5 min 48,9 klux 334 W/m
02.11.2015 11:00 14,8 C 28,9 C 59 % 1026,0 hPa 0,0 l/m 15,1 km/h (3 Bft) S-SO22.5 160 5 min 48,6 klux 332 W/m
02.11.2015 11:05 15,0 C 29,2 C 58 % 1026,0 hPa 0,0 l/m 15,1 km/h (3 Bft) S-SO22.5 165 5 min 48,9 klux 334 W/m
02.11.2015 11:10 15,0 C 29,7 C 60 % 1026,0 hPa 0,0 l/m 13,5 km/h (3 Bft) S-SO22.5 160 5 min 49,7 klux 340 W/m
02.11.2015 11:15 15,1 C 29,5 C 60 % 1026,0 hPa 0,0 l/m 17,7 km/h (3 Bft) S-SO22.5 165 5 min 49,9 klux 341 W/m
02.11.2015 11:20 15,0 C 28,7 C 57 % 1026,0 hPa 0,0 l/m 22,8 km/h (4 Bft) S-SO45 165 5 min 50,4 klux 345 W/m
02.11.2015 11:25 14,7 C 28,4 C 57 % 1026,0 hPa 0,0 l/m 24,1 km/h (4 Bft) S-SO22.5 160 5 min 50,7 klux 347 W/m
02.11.2015 11:29 14,8 C 28,7 C 58 % 1026,0 hPa 0,0 l/m 20,0 km/h (4 Bft) S-SO45 160 4 min 51,4 klux 352 W/m
02.11.2015 11:35 14,7 C 28,7 C 57 % 1026,0 hPa 0,0 l/m 18,1 km/h (3 Bft) S-SO22.5 160 6 min 51,6 klux 353 W/m
02.11.2015 11:40 14,7 C 29,3 C 58 % 1026,0 hPa 0,0 l/m 17,3 km/h (3 Bft) S-SO22.5 160 5 min 52,1 klux 356 W/m
02.11.2015 11:45 15,0 C 30,1 C 59 % 1026,0 hPa 0,0 l/m 16,6 km/h (3 Bft) S-SO22.5 155 5 min 52,0 klux 356 W/m
02.11.2015 11:50 15,0 C 30,1 C 58 % 1026,0 hPa 0,0 l/m 16,6 km/h (3 Bft) S-SO22.5 155 5 min 52,4 klux 358 W/m
02.11.2015 11:55 15,0 C 30,8 C 57 % 1026,0 hPa 0,0 l/m 15,3 km/h (3 Bft) S22.5 170 5 min 52,7 klux 360 W/m
02.11.2015 11:59 15,0 C 31,3 C 57 % 1026,0 hPa 0,0 l/m 14,6 km/h (3 Bft) S-SO45 150 4 min 52,9 klux 362 W/m
02.11.2015 12:05 15,4 C 31,7 C 58 % 1026,0 hPa 0,0 l/m 15,3 km/h (3 Bft) S-SO45 150 6 min 52,7 klux 360 W/m
02.11.2015 12:10 15,6 C 31,8 C 55 % 1026,0 hPa 0,0 l/m 19,5 km/h (3 Bft) S-SO45 160 5 min 52,8 klux 361 W/m
02.11.2015 12:15 15,6 C 31,4 C 55 % 1026,0 hPa 0,0 l/m 15,1 km/h (3 Bft) S-SO45 150 5 min 52,8 klux 361 W/m
02.11.2015 12:20 15,6 C 31,0 C 53 % 1026,0 hPa 0,0 l/m 21,1 km/h (4 Bft) S-SO22.5 150 5 min 52,3 klux 358 W/m
02.11.2015 12:24 15,8 C 31,1 C 55 % 1026,0 hPa 0,0 l/m 18,8 km/h (3 Bft) S45 170 4 min 52,7 klux 360 W/m
02.11.2015 12:30 15,8 C 31,8 C 55 % 1026,0 hPa 0,0 l/m 13,5 km/h (3 Bft) S-SO22.5 165 6 min 52,4 klux 358 W/m
02.11.2015 12:35 15,8 C 32,0 C 55 % 1025,0 hPa 0,0 l/m 17,2 km/h (3 Bft) S45 175 5 min 52,2 klux 357 W/m
02.11.2015 12:40 15,9 C 32,3 C 55 % 1025,0 hPa 0,0 l/m 12,3 km/h (2 Bft) S-SO22.5 165 5 min 52,1 klux 356 W/m
02.11.2015 12:45 16,0 C 32,4 C 55 % 1025,0 hPa 0,0 l/m 10,5 km/h (2 Bft) S45 170 5 min 52,0 klux 356 W/m
02.11.2015 12:50 16,0 C 32,3 C 53 % 1025,0 hPa 0,0 l/m 13,8 km/h (3 Bft) S22.5 185 5 min 51,9 klux 355 W/m
02.11.2015 12:55 16,0 C 32,4 C 54 % 1025,0 hPa 0,0 l/m 12,3 km/h (2 Bft) S-SO22.5 160 5 min 51,6 klux 353 W/m
02.11.2015 13:00 16,2 C 32,6 C 53 % 1024,9 hPa 0,0 l/m 13,6 km/h (3 Bft) S-SO45 150 5 min 51,1 klux 350 W/m
02.11.2015 13:05 16,2 C 32,5 C 53 % 1024,9 hPa 0,0 l/m 12,8 km/h (3 Bft) S-SO45 165 5 min 50,9 klux 348 W/m
02.11.2015 13:10 16,6 C 32,7 C 52 % 1024,9 hPa 0,0 l/m 13,6 km/h (3 Bft) S-SO22.5 160 5 min 50,7 klux 347 W/m
02.11.2015 13:15 16,6 C 32,6 C 53 % 1024,9 hPa 0,0 l/m 16,2 km/h (3 Bft) S-SO22.5 165 5 min 50,2 klux 343 W/m
02.11.2015 13:20 16,8 C 32,7 C 53 % 1024,9 hPa 0,0 l/m 11,3 km/h (2 Bft) S-SO22.5 160 5 min 49,5 klux 339 W/m
02.11.2015 13:25 16,8 C 32,6 C 53 % 1024,9 hPa 0,0 l/m 8,7 km/h (2 Bft) S22.5 170 5 min 49,1 klux 336 W/m
02.11.2015 13:30 17,1 C 32,6 C 53 % 1024,9 hPa 0,0 l/m 9,8 km/h (2 Bft) S-SO22.5 150 5 min 48,6 klux 332 W/m
02.11.2015 13:35 17,1 C 32,1 C 53 % 1024,9 hPa 0,0 l/m 6,1 km/h (2 Bft) S22.5 175 5 min 48,0 klux 328 W/m
02.11.2015 13:40 17,3 C 32,6 C 51 % 1024,9 hPa 0,0 l/m 11,6 km/h (2 Bft) S-SO22.5 165 5 min 47,6 klux 326 W/m
02.11.2015 13:45 17,4 C 32,5 C 51 % 1024,9 hPa 0,0 l/m 12,3 km/h (2 Bft) S-SO22.5 165 5 min 47,1 klux 322 W/m
02.11.2015 13:50 17,4 C 32,0 C 51 % 1024,9 hPa 0,0 l/m 10,1 km/h (2 Bft) S-SO 165 5 min 46,3 klux 317 W/m
02.11.2015 13:54 17,4 C 31,8 C 51 % 1024,9 hPa 0,0 l/m 10,4 km/h (2 Bft) S22.5 180 4 min 45,8 klux 313 W/m
02.11.2015 14:00 17,4 C 31,3 C 51 % 1024,9 hPa 0,0 l/m 12,1 km/h (2 Bft) S22.5 180 6 min 45,2 klux 309 W/m
02.11.2015 14:05 17,6 C 31,3 C 49 % 1024,9 hPa 0,0 l/m 8,6 km/h (2 Bft) S-SO 165 5 min 44,6 klux 305 W/m
02.11.2015 14:10 17,5 C 30,9 C 50 % 1024,9 hPa 0,0 l/m 9,6 km/h (2 Bft) S22.5 185 5 min 43,8 klux 300 W/m
02.11.2015 14:15 17,5 C 30,7 C 50 % 1024,9 hPa 0,0 l/m 8,3 km/h (2 Bft) S 180 5 min 43,2 klux 295 W/m
02.11.2015 14:19 17,5 C 30,9 C 50 % 1023,9 hPa 0,0 l/m 7,9 km/h (2 Bft) S45 170 4 min 42,7 klux 292 W/m
02.11.2015 14:25 17,9 C 30,7 C 48 % 1023,9 hPa 0,0 l/m 8,2 km/h (2 Bft) S22.5 180 6 min 41,8 klux 286 W/m
02.11.2015 14:30 17,9 C 30,5 C 48 % 1023,9 hPa 0,0 l/m 8,9 km/h (2 Bft) S-SO22.5 160 5 min 40,3 klux 276 W/m
02.11.2015 14:35 18,0 C 30,2 C 49 % 1023,9 hPa 0,0 l/m 8,3 km/h (2 Bft) S-SO 155 5 min 39,4 klux 269 W/m
02.11.2015 14:40 17,8 C 29,9 C 49 % 1023,9 hPa 0,0 l/m 8,9 km/h (2 Bft) S22.5 170 5 min 39,0 klux 267 W/m
02.11.2015 14:45 17,8 C 29,5 C 49 % 1023,9 hPa 0,0 l/m 9,6 km/h (2 Bft) S-SO22.5 160 5 min 38,5 klux 263 W/m
02.11.2015 14:50 17,3 C 29,0 C 47 % 1023,9 hPa 0,0 l/m 11,6 km/h (2 Bft) S-SO45 160 5 min 37,5 klux 257 W/m
02.11.2015 14:55 17,1 C 28,5 C 48 % 1023,9 hPa 0,0 l/m 10,6 km/h (2 Bft) S-SO22.5 150 5 min 36,3 klux 248 W/m
02.11.2015 15:00 17,1 C 28,0 C 48 % 1023,9 hPa 0,0 l/m 11,6 km/h (2 Bft) SO45 145 5 min 35,4 klux 242 W/m
02.11.2015 15:05 16,9 C 27,6 C 48 % 1023,9 hPa 0,0 l/m 11,3 km/h (2 Bft) S-SO22.5 160 5 min 34,6 klux 237 W/m
02.11.2015 15:10 16,8 C 27,5 C 49 % 1023,9 hPa 0,0 l/m 8,3 km/h (2 Bft) SO22.5 135 5 min 33,6 klux 230 W/m
02.11.2015 15:14 16,7 C 26,8 C 50 % 1023,9 hPa 0,0 l/m 9,7 km/h (2 Bft) SO45 140 4 min 33,0 klux 226 W/m
02.11.2015 15:20 16,5 C 26,4 C 51 % 1023,9 hPa 0,0 l/m 10,1 km/h (2 Bft) O-SO45 120 6 min 31,7 klux 217 W/m
02.11.2015 15:25 16,4 C 26,0 C 51 % 1023,9 hPa 0,0 l/m 10,1 km/h (2 Bft) O-SO45 120 5 min 29,9 klux 205 W/m
02.11.2015 15:30 16,4 C 25,4 C 51 % 1023,9 hPa 0,0 l/m 6,7 km/h (2 Bft) SO22.5 125 5 min 29,3 klux 200 W/m
02.11.2015 15:35 16,3 C 24,7 C 51 % 1023,9 hPa 0,0 l/m 11,5 km/h (2 Bft) O-SO45 115 5 min 27,8 klux 190 W/m
02.11.2015 15:40 16,2 C 24,3 C 52 % 1023,9 hPa 0,0 l/m 4,2 km/h (1 Bft) O22.5 85 5 min 25,8 klux 176 W/m
02.11.2015 15:45 16,0 C 24,0 C 53 % 1023,9 hPa 0,0 l/m 0,7 km/h (0 Bft) SO 130 5 min 24,5 klux 168 W/m
02.11.2015 15:49 15,9 C 23,5 C 53 % 1023,9 hPa 0,0 l/m 0,1 km/h (0 Bft) SO 130 4 min 23,5 klux 161 W/m
02.11.2015 15:55 15,8 C 22,8 C 54 % 1024,0 hPa 0,0 l/m 8,9 km/h (2 Bft) SO22.5 145 6 min 22,0 klux 150 W/m
02.11.2015 16:00 15,8 C 22,8 C 54 % 1024,0 hPa 0,0 l/m 7,4 km/h (2 Bft) SO 145 5 min 20,3 klux 139 W/m
02.11.2015 16:05 15,6 C 21,7 C 54 % 1024,0 hPa 0,0 l/m 5,4 km/h (2 Bft) SO 145 5 min 20,0 klux 137 W/m
02.11.2015 16:10 15,5 C 21,0 C 54 % 1024,0 hPa 0,0 l/m 5,4 km/h (2 Bft) SO 140 5 min 18,4 klux 126 W/m
02.11.2015 16:14 15,3 C 20,6 C 55 % 1024,0 hPa 0,0 l/m 0,7 km/h (0 Bft) SO 140 4 min 16,7 klux 114 W/m
02.11.2015 16:20 15,0 C 19,6 C 55 % 1024,0 hPa 0,0 l/m 5,6 km/h (2 Bft) S-SO 150 6 min 14,8 klux 101 W/m
02.11.2015 16:25 15,0 C 18,5 C 55 % 1024,0 hPa 0,0 l/m 5,4 km/h (2 Bft) S-SO 150 5 min 13,0 klux 89 W/m
02.11.2015 16:30 15,0 C 17,5 C 55 % 1024,0 hPa 0,0 l/m 5,2 km/h (1 Bft) S-SO 155 5 min 11,3 klux 77 W/m
02.11.2015 16:35 14,7 C 16,9 C 56 % 1024,0 hPa 0,0 l/m 5,1 km/h (1 Bft) S-SO 155 5 min 9,6 klux 66 W/m
02.11.2015 16:40 14,5 C 15,7 C 57 % 1024,0 hPa 0,0 l/m 0,0 km/h (0 Bft) S-SO 155 5 min 7,94 klux 54 W/m
02.11.2015 16:44 14,4 C 14,6 C 57 % 1024,0 hPa 0,0 l/m 5,1 km/h (1 Bft) S-SO 160 4 min 6,23 klux 43 W/m
02.11.2015 16:50 14,0 C 13,9 C 58 % 1024,0 hPa 0,0 l/m 5,7 km/h (2 Bft) S-SO 160 6 min 4,58 klux 31 W/m
02.11.2015 16:55 14,0 C 12,7 C 58 % 1024,0 hPa 0,0 l/m 5,9 km/h (2 Bft) S-SO 160 0 min 2,91 klux 20 W/m
02.11.2015 17:00 14,0 C 11,5 C 58 % 1024,0 hPa 0,0 l/m 5,7 km/h (2 Bft) S-SO 160 0 min 1,72 klux 0 W/m
02.11.2015 17:05 13,6 C 10,9 C 59 % 1024,0 hPa 0,0 l/m 5,4 km/h (2 Bft) S-SO 160 0 min 1,09 klux 0 W/m
02.11.2015 17:10 13,3 C 10,0 C 59 % 1024,0 hPa 0,0 l/m 7,0 km/h (2 Bft) S 170 0 min 742 lux 0 W/m
02.11.2015 17:15 13,2 C 9,4 C 59 % 1024,0 hPa 0,0 l/m 6,3 km/h (2 Bft) S22.5 180 0 min 477 lux 0 W/m
02.11.2015 17:20 13,2 C 9,0 C 59 % 1024,0 hPa 0,0 l/m 9,4 km/h (2 Bft) S22.5 180 0 min 280 lux 0 W/m
02.11.2015 17:25 13,1 C 8,9 C 60 % 1024,0 hPa 0,0 l/m 6,8 km/h (2 Bft) S-SO 155 0 min 149 lux 0 W/m
02.11.2015 17:30 13,1 C 8,6 C 60 % 1024,0 hPa 0,0 l/m 10,2 km/h (2 Bft) S 170 0 min 72 lux 0 W/m
02.11.2015 17:35 12,9 C 8,5 C 60 % 1024,0 hPa 0,0 l/m 9,7 km/h (2 Bft) S-SO 160 0 min 22 lux 0 W/m
02.11.2015 17:40 12,8 C 8,3 C 60 % 1024,0 hPa 0,0 l/m 7,0 km/h (2 Bft) SO22.5 145 0 min 15 lux 0 W/m
02.11.2015 17:45 12,8 C 8,1 C 60 % 1024,0 hPa 0,0 l/m 9,2 km/h (2 Bft) S-SO22.5 160 0 min 15 lux 0 W/m
02.11.2015 17:50 12,6 C 7,9 C 61 % 1024,0 hPa 0,0 l/m 7,2 km/h (2 Bft) S-SO 155 0 min 5 lux 0 W/m
02.11.2015 17:55 12,6 C 7,7 C 61 % 1024,0 hPa 0,0 l/m 6,5 km/h (2 Bft) S-SO 150 0 min 2 lux 0 W/m
02.11.2015 18:00 12,3 C 7,5 C 61 % 1024,0 hPa 0,0 l/m 5,6 km/h (2 Bft) S-SO 150 0 min 0 lux 0 W/m
02.11.2015 18:05 11,9 C 7,2 C 62 % 1024,0 hPa 0,0 l/m 1,3 km/h (1 Bft) S-SO 150 0 min 0 lux 0 W/m
02.11.2015 18:10 11,7 C 7,0 C 63 % 1024,0 hPa 0,0 l/m 6,5 km/h (2 Bft) SO22.5 135 0 min 0 lux 0 W/m
02.11.2015 18:15 11,6 C 7,1 C 64 % 1024,0 hPa 0,0 l/m 10,5 km/h (2 Bft) O-SO22.5 115 0 min 0 lux 0 W/m
02.11.2015 18:20 11,7 C 7,0 C 63 % 1024,0 hPa 0,0 l/m 4,9 km/h (1 Bft) O-SO 115 0 min 0 lux 0 W/m
02.11.2015 18:25 11,6 C 6,7 C 63 % 1024,0 hPa 0,0 l/m 0,6 km/h (0 Bft) O-SO 120 0 min 0 lux 0 W/m
02.11.2015 18:30 11,3 C 6,5 C 64 % 1024,0 hPa 0,0 l/m 1,3 km/h (1 Bft) O-SO 120 0 min 0 lux 0 W/m
02.11.2015 18:35 11,2 C 6,2 C 64 % 1024,0 hPa 0,0 l/m 5,8 km/h (2 Bft) O-SO 120 0 min 0 lux 0 W/m
02.11.2015 18:39 11,0 C 6,0 C 64 % 1024,0 hPa 0,0 l/m 3,8 km/h (1 Bft) O-SO 120 0 min 0 lux 0 W/m
02.11.2015 18:45 10,7 C 5,9 C 65 % 1024,0 hPa 0,0 l/m 0,5 km/h (0 Bft) O-SO 120 0 min 808 lux 0 W/m
02.11.2015 18:50 10,6 C 5,8 C 66 % 1024,0 hPa 0,0 l/m 0,3 km/h (0 Bft) O-SO 120 0 min 0 lux 0 W/m
02.11.2015 18:55 10,3 C 5,6 C 66 % 1024,0 hPa 0,0 l/m 0,0 km/h (0 Bft) O-SO 120 0 min 0 lux 0 W/m
02.11.2015 19:00 10,2 C 5,5 C 66 % 1024,0 hPa 0,0 l/m 0,0 km/h (0 Bft) O-SO 120 0 min 0 lux 0 W/m
02.11.2015 19:05 9,9 C 5,5 C 68 % 1024,1 hPa 0,0 l/m 2,1 km/h (1 Bft) O-SO45 115 0 min 0 lux 0 W/m
02.11.2015 19:10 9,9 C 5,5 C 68 % 1024,1 hPa 0,0 l/m 5,0 km/h (1 Bft) SO 125 0 min 0 lux 0 W/m
02.11.2015 19:15 9,8 C 5,5 C 68 % 1024,1 hPa 0,0 l/m 3,3 km/h (1 Bft) O-SO 120 0 min 0 lux 0 W/m
02.11.2015 19:20 9,8 C 5,3 C 68 % 1024,1 hPa 0,0 l/m 0,4 km/h (0 Bft) O-SO 115 0 min 0 lux 0 W/m
02.11.2015 19:25 9,8 C 5,3 C 68 % 1024,1 hPa 0,0 l/m 1,1 km/h (1 Bft) O-SO22.5 110 0 min 0 lux 0 W/m
02.11.2015 19:30 9,6 C 5,4 C 70 % 1023,1 hPa 0,0 l/m 8,9 km/h (2 Bft) O-SO45 105 0 min 0 lux 0 W/m
02.11.2015 19:34 9,6 C 5,4 C 70 % 1023,1 hPa 0,0 l/m 10,6 km/h (2 Bft) O-SO22.5 105 0 min 0 lux 0 W/m
02.11.2015 19:40 9,8 C 5,3 C 70 % 1023,1 hPa 0,0 l/m 9,5 km/h (2 Bft) O-SO22.5 115 0 min 0 lux 0 W/m
02.11.2015 19:45 10,0 C 5,4 C 70 % 1023,0 hPa 0,0 l/m 7,8 km/h (2 Bft) SO22.5 135 0 min 0 lux 0 W/m
02.11.2015 19:50 10,0 C 5,4 C 69 % 1023,0 hPa 0,0 l/m 10,3 km/h (2 Bft) S-SO22.5 150 0 min 0 lux 0 W/m
02.11.2015 19:55 10,0 C 5,4 C 69 % 1023,0 hPa 0,0 l/m 11,1 km/h (2 Bft) S-SO22.5 155 0 min 0 lux 0 W/m
02.11.2015 20:00 10,0 C 5,5 C 69 % 1023,0 hPa 0,0 l/m 12,3 km/h (2 Bft) S-SO22.5 160 0 min 0 lux 0 W/m
02.11.2015 20:05 10,0 C 5,7 C 69 % 1023,0 hPa 0,0 l/m 11,6 km/h (2 Bft) SO45 145 0 min 0 lux 0 W/m
02.11.2015 20:10 10,3 C 5,8 C 69 % 1023,0 hPa 0,0 l/m 12,8 km/h (3 Bft) SO22.5 140 0 min 0 lux 0 W/m
02.11.2015 20:15 10,3 C 5,8 C 69 % 1023,0 hPa 0,0 l/m 13,3 km/h (3 Bft) SO22.5 140 0 min 0 lux 0 W/m
02.11.2015 20:20 10,3 C 5,7 C 69 % 1023,0 hPa 0,0 l/m 7,6 km/h (2 Bft) S-SO22.5 150 0 min 0 lux 0 W/m
02.11.2015 20:25 10,3 C 5,7 C 68 % 1023,0 hPa 0,0 l/m 10,5 km/h (2 Bft) S-SO22.5 150 0 min 0 lux 0 W/m
02.11.2015 20:30 10,3 C 5,6 C 68 % 1023,0 hPa 0,0 l/m 11,6 km/h (2 Bft) S-SO22.5 150 0 min 0 lux 0 W/m
02.11.2015 20:35 10,1 C 5,7 C 69 % 1023,0 hPa 0,0 l/m 12,5 km/h (2 Bft) S-SO22.5 160 0 min 0 lux 0 W/m
02.11.2015 20:40 10,1 C 5,6 C 69 % 1023,0 hPa 0,0 l/m 8,2 km/h (2 Bft) S-SO 155 0 min 0 lux 0 W/m
02.11.2015 20:45 10,0 C 5,6 C 69 % 1023,0 hPa 0,0 l/m 7,4 km/h (2 Bft) S-SO 155 0 min 880 lux 0 W/m
02.11.2015 20:50 10,0 C 5,4 C 70 % 1023,0 hPa 0,0 l/m 12,5 km/h (2 Bft) S-SO22.5 160 0 min 0 lux 0 W/m
02.11.2015 20:55 10,0 C 5,5 C 70 % 1023,0 hPa 0,0 l/m 12,5 km/h (2 Bft) S-SO45 165 0 min 0 lux 0 W/m
02.11.2015 21:00 9,9 C 5,7 C 70 % 1023,0 hPa 0,0 l/m 17,6 km/h (3 Bft) S-SO45 155 0 min 0 lux 0 W/m
02.11.2015 21:05 9,9 C 5,8 C 69 % 1023,0 hPa 0,0 l/m 13,8 km/h (3 Bft) S-SO22.5 160 0 min 0 lux 0 W/m
02.11.2015 21:10 9,9 C 5,9 C 69 % 1023,0 hPa 0,0 l/m 14,6 km/h (3 Bft) S-SO22.5 150 0 min 0 lux 0 W/m
02.11.2015 21:15 9,9 C 5,9 C 69 % 1023,0 hPa 0,0 l/m 16,0 km/h (3 Bft) SO45 135 0 min 0 lux 0 W/m
02.11.2015 21:19 9,8 C 6,0 C 69 % 1023,1 hPa 0,0 l/m 15,5 km/h (3 Bft) S-SO22.5 150 0 min 0 lux 0 W/m
02.11.2015 21:25 9,8 C 5,9 C 69 % 1023,1 hPa 0,0 l/m 14,0 km/h (3 Bft) S-SO22.5 150 0 min 0 lux 0 W/m
02.11.2015 21:30 9,6 C 5,7 C 70 % 1023,1 hPa 0,0 l/m 12,5 km/h (2 Bft) SO45 135 0 min 0 lux 0 W/m
02.11.2015 21:35 9,6 C 5,7 C 70 % 1023,1 hPa 0,0 l/m 13,3 km/h (3 Bft) S-SO22.5 150 0 min 0 lux 0 W/m
02.11.2015 21:40 9,6 C 5,6 C 70 % 1023,1 hPa 0,0 l/m 13,3 km/h (3 Bft) S-SO45 150 0 min 0 lux 0 W/m
02.11.2015 21:45 9,6 C 5,7 C 70 % 1023,1 hPa 0,0 l/m 15,0 km/h (3 Bft) SO45 140 0 min 0 lux 0 W/m
02.11.2015 21:49 9,6 C 5,6 C 70 % 1023,1 hPa 0,0 l/m 17,4 km/h (3 Bft) SO45 145 0 min 0 lux 0 W/m
02.11.2015 21:55 9,5 C 5,6 C 71 % 1023,1 hPa 0,0 l/m 11,4 km/h (2 Bft) S-SO45 150 0 min 0 lux 0 W/m
02.11.2015 22:00 9,5 C 5,6 C 71 % 1023,1 hPa 0,0 l/m 15,5 km/h (3 Bft) S-SO45 150 0 min 0 lux 0 W/m
02.11.2015 22:05 9,5 C 5,6 C 71 % 1023,1 hPa 0,0 l/m 15,5 km/h (3 Bft) S-SO45 150 0 min 0 lux 0 W/m
02.11.2015 22:10 9,5 C 5,5 C 71 % 1023,1 hPa 0,0 l/m 13,0 km/h (3 Bft) S-SO22.5 155 0 min 0 lux 0 W/m
02.11.2015 22:14 9,4 C 5,4 C 71 % 1023,1 hPa 0,0 l/m 16,3 km/h (3 Bft) S-SO22.5 150 0 min 0 lux 0 W/m
02.11.2015 22:20 9,4 C 5,4 C 71 % 1023,1 hPa 0,0 l/m 15,1 km/h (3 Bft) S-SO22.5 155 0 min 0 lux 0 W/m
02.11.2015 22:25 9,3 C 5,3 C 71 % 1023,1 hPa 0,0 l/m 17,0 km/h (3 Bft) S-SO22.5 160 0 min 0 lux 0 W/m
02.11.2015 22:30 9,3 C 5,4 C 71 % 1023,1 hPa 0,0 l/m 17,0 km/h (3 Bft) S-SO22.5 160 0 min 0 lux 0 W/m
02.11.2015 22:35 9,2 C 5,3 C 71 % 1023,1 hPa 0,0 l/m 14,0 km/h (3 Bft) S-SO45 150 0 min 0 lux 0 W/m
02.11.2015 22:40 9,2 C 5,4 C 72 % 1023,1 hPa 0,0 l/m 16,3 km/h (3 Bft) S-SO22.5 150 0 min 0 lux 0 W/m
02.11.2015 22:44 9,1 C 5,3 C 71 % 1023,1 hPa 0,0 l/m 17,2 km/h (3 Bft) S-SO22.5 150 0 min 0 lux 0 W/m
02.11.2015 22:50 9,0 C 5,2 C 72 % 1023,1 hPa 0,0 l/m 13,4 km/h (3 Bft) S-SO45 150 0 min 0 lux 0 W/m
02.11.2015 22:55 9,0 C 5,2 C 72 % 1023,1 hPa 0,0 l/m 14,0 km/h (3 Bft) SO45 145 0 min 0 lux 0 W/m
02.11.2015 23:00 9,0 C 5,1 C 72 % 1023,1 hPa 0,0 l/m 12,8 km/h (3 Bft) S-SO22.5 150 0 min 0 lux 0 W/m
02.11.2015 23:05 8,9 C 5,1 C 72 % 1023,1 hPa 0,0 l/m 14,3 km/h (3 Bft) S-SO22.5 160 0 min 0 lux 0 W/m
02.11.2015 23:09 8,8 C 5,0 C 72 % 1023,1 hPa 0,0 l/m 13,4 km/h (3 Bft) S-SO22.5 160 0 min 0 lux 0 W/m
02.11.2015 23:15 8,8 C 5,0 C 73 % 1023,1 hPa 0,0 l/m 15,3 km/h (3 Bft) S-SO22.5 155 0 min 0 lux 0 W/m
02.11.2015 23:20 8,8 C 5,0 C 73 % 1023,1 hPa 0,0 l/m 15,0 km/h (3 Bft) S-SO22.5 155 0 min 0 lux 0 W/m
02.11.2015 23:25 8,6 C 4,7 C 73 % 1023,1 hPa 0,0 l/m 10,2 km/h (2 Bft) S-SO22.5 160 0 min 0 lux 0 W/m
02.11.2015 23:30 8,5 C 4,5 C 73 % 1023,1 hPa 0,0 l/m 9,8 km/h (2 Bft) S-SO 155 0 min 0 lux 0 W/m
02.11.2015 23:35 8,4 C 4,2 C 73 % 1023,1 hPa 0,0 l/m 7,2 km/h (2 Bft) S-SO 150 0 min 0 lux 0 W/m
02.11.2015 23:39 8,1 C 4,1 C 74 % 1023,1 hPa 0,0 l/m 7,0 km/h (2 Bft) SO22.5 130 0 min 0 lux 0 W/m
02.11.2015 23:45 8,1 C 4,0 C 75 % 1023,1 hPa 0,0 l/m 9,2 km/h (2 Bft) SO45 140 0 min 0 lux 0 W/m
02.11.2015 23:50 8,0 C 4,0 C 74 % 1023,1 hPa 0,0 l/m 5,4 km/h (2 Bft) S 175 0 min 0 lux 0 W/m
02.11.2015 23:55 8,0 C 3,8 C 75 % 1023,1 hPa 0,0 l/m 8,2 km/h (2 Bft) S-SO22.5 165 0 min 0 lux 0 W/m
_ Min-Zeit 06:45 03:20 14:50 20:10 - 00:30 - - - - -
Minimum _ 2,9 C 0,5 C 47 % 1023,0 hPa - 0,0 km/h (0 Bft) - - - - -
_ Max-Zeit 14:35 13:10 09:05 00:15 02:50 11:25 - - 10:35 11:59 11:59
Maximum _ 18,0 C 32,7 C 90 % 1029,1 hPa 0,4 l/m 24,1 km/h
S-SO (4 Bft)
- - 6 min 52,9 klux 362 W/m
Durchschnitt _ 9,5 C 11,2 C 73 % 1025,5 hPa #0,4 l/m 6,3 km/h (2 Bft) S-SO - #8:15 h 13,6 klux 237 W/m